Location: Im Fang
(46.6019°N, 7.2397°E)
Time: 18:23:50
(UTC+00:00)

Cosmos 1452 Rocket - Pass Details

Date: 08 December 2019
Orbit: 767 x 775 km, 74.1° (Epoch: 18 January)

Event Time Altitude Azimuth Distance (km) Brightness Sun altitude
Rises 05:57:17 0° 217° (SW) 3,235 6.6 -10.7°
Reaches altitude 10° 05:59:44 10° 223° (SW) 2,313 5.8 -10.3°
Maximum altitude 06:04:48 48° 298° (WNW) 1,009 3.7 -9.5°
Drops below altitude 10° 06:09:55 10° 12° (NNE) 2,332 5.9 -8.7°
Sets 06:12:24 0° 19° (NNE) 3,264 6.7 -8.3°
